Location: Unspecified
(0.0000°N, 0.0000°E)
Time: 13:58:00
(UTC+00:00)

ISS - Pass Details

Date: 21 August 2019
Orbit: 410 x 420 km, 51.6° (Epoch: 21 August)

Event Time Altitude Azimuth Distance (km) Brightness Sun altitude
Exits shadow 04:20:31 33° 83° (E) 709 -2.1 -25.1°
Drops below altitude 10° 04:22:46 10° 53° (NE) 1,471 -0.1 -24.5°
Sets 04:24:54 0° 46° (NE) 2,331 1.0 -24.0°
